This demonstration page uses our WeatherBlox Daily Observations layout. Learn more.

Hourly Observations for March 25, 2019

Temp ( °F °C ) Dew Point ( °F °C ) Humidity (%) Winds ( mph kmh ) Pressure ( in mb ) Visibility ( mi km ) Precip ( " mm )
12:15 am 00:15 Partly Cloudy 54 12 32 0 44 44 ESE 6 9 30.06 1018 10 16.09344 0 0
12:35 am 00:35 Partly Cloudy 52 11 32 0 47 47 ESE 3 6 30.06 1018 10 16.09344 0 0
12:55 am 00:55 Mostly Cloudy 50 10 36 2 58 58 NW 3 6 30.12 1020 10 16.09344 0 0
1:15 am 01:15 Mostly Cloudy 52 11 34 1 50 50 N 5 7 30.06 1018 10 16.09344 0 0
1:35 am 01:35 Partly Cloudy 52 11 34 1 50 50 NW 3 6 30.09 1019 10 16.09344 0 0
1:55 am 01:55 Partly Cloudy 50 10 34 1 54 54 Calm 30.09 1019 10 16.09344 0 0
2:15 am 02:15 Mostly Cloudy 52 11 32 0 47 47 Calm 30.06 1018 10 16.09344 0 0
2:35 am 02:35 Cloudy 52 11 34 1 50 50 NE 5 7 30.06 1018 10 16.09344 0 0
2:55 am 02:55 Cloudy 50 10 37 3 62 62 Calm 30.09 1019 10 16.09344 0 0
3:15 am 03:15 Cloudy 50 10 36 2 58 58 Calm 30.09 1019 10 16.09344 0 0
3:35 am 03:35 Cloudy 50 10 36 2 58 58 Calm 30.03 1017 10 16.09344 0 0
3:55 am 03:55 Cloudy 48 9 41 5 76 76 Calm 30.06 1018 10 16.09344 0 0
4:15 am 04:15 Cloudy 48 9 37 3 66 66 Calm 30.06 1018 10 16.09344 0 0
4:35 am 04:35 Cloudy 50 10 37 3 62 62 Calm 30.03 1017 10 16.09344 0 0
4:55 am 04:55 Partly Cloudy 48 9 37 3 66 66 Calm 30.06 1018 10 16.09344 0 0
5:15 am 05:15 Partly Cloudy 48 9 37 3 66 66 Calm 30.06 1018 10 16.09344 0 0
5:35 am 05:35 Mostly Cloudy 48 9 37 3 66 66 E 3 6 30.06 1018 10 16.09344 0 0
5:55 am 05:55 Cloudy 50 10 37 3 62 62 Calm 30.03 1017 10 16.09344 0 0
6:15 am 06:15 Cloudy 46 8 37 3 71 71 Calm 30.06 1018 10 16.09344 0 0
6:35 am 06:35 Cloudy 46 8 39 4 76 76 Calm 30.06 1018 10 16.09344 0 0
6:55 am 06:55 Mostly Cloudy 46 8 39 4 76 76 Calm 30.06 1018 10 16.09344 0 0
7:15 am 07:15 Partly Cloudy 45 7 37 3 76 76 Calm 30.06 1018 10 16.09344 0 0
7:35 am 07:35 Sunny 45 7 37 3 76 76 NNW 6 9 30.06 1018 10 16.09344 0 0
7:55 am 07:55 Sunny 46 8 37 3 71 71 Calm 30.09 1019 10 16.09344 0 0
8:15 am 08:15 Mostly Cloudy 48 9 39 4 71 71 Calm 30.09 1019 10 16.09344 0 0
8:35 am 08:35 Cloudy 52 11 37 3 58 58 Calm 30.06 1018 10 16.09344 0 0
8:55 am 08:55 Mostly Cloudy 54 12 37 3 54 54 Calm 30.06 1018 10 16.09344 0 0
9:15 am 09:15 Partly Cloudy 55 13 36 2 47 47 Calm 30.06 1018 10 16.09344 0 0
9:35 am 09:35 Sunny 57 14 34 1 41 41 ENE 5 7 30.06 1018 10 16.09344 0 0
9:55 am 09:55 Sunny 59 15 36 2 42 42 NE 6 9 30.03 1017 10 16.09344 0 0
10:15 am 10:15 Sunny 59 15 36 2 42 42 ENE 3 6 30.03 1017 10 16.09344 0 0
10:35 am 10:35 Partly Cloudy 61 16 37 3 42 42 ENE 3 6 30.03 1017 10 16.09344 0 0
10:55 am 10:55 Cloudy 61 16 37 3 42 42 ENE 3 6 30.03 1017 10 16.09344 0 0
11:15 am 11:15 Cloudy 61 16 37 3 42 42 E 3 6 30.03 1017 10 16.09344 0 0
11:35 am 11:35 Cloudy 59 15 37 3 45 45 Calm 30.06 1018 10 16.09344 0 0
11:55 am 11:55 Cloudy 59 15 37 3 45 45 NNE 3 6 30.03 1017 10 16.09344 0 0
12:15 pm 12:15 Cloudy 59 15 41 5 51 51 NNE 8 13 30.03 1017 10 16.09344 0 0
12:35 pm 12:35 Cloudy 59 15 43 6 55 55 NNE 12 19 30.06 1018 10 16.09344 0 0
12:55 pm 12:55 Mostly Cloudy 59 15 41 5 51 51 NE 10 17 30.03 1017 10 16.09344 0 0
1:15 pm 13:15 Partly Cloudy 59 15 41 5 51 51 NNE 9 15 30.03 1017 10 16.09344 0 0
1:35 pm 13:35 Mostly Cloudy 59 15 41 5 51 51 NNE 10 17 30.03 1017 10 16.09344 0 0
1:55 pm 13:55 Cloudy 57 14 41 5 55 55 NE 13 20 30.03 1017 10 16.09344 0 0
2:15 pm 14:15 Cloudy 57 14 41 5 55 55 NNE 8 13 30.03 1017 10 16.09344 0 0
2:35 pm 14:35 Cloudy 55 13 41 5 59 59 N 12 19 30.03 1017 10 16.09344 0 0
2:55 pm 14:55 Cloudy 55 13 43 6 63 63 NNE 7 11 30.03 1017 10 16.09344 0 0
3:15 pm 15:15 Cloudy 55 13 43 6 63 63 NE 12 19 30 1016 10 16.09344 0 0
3:35 pm 15:35 Cloudy 54 12 43 6 67 67 NNE 13 20 30 1016 10 16.09344 0 0
3:55 pm 15:55 Cloudy 52 11 45 7 77 77 NNE 12 19 30.03 1017 10 16.09344 0 0
4:15 pm 16:15 Cloudy 52 11 46 8 82 82 NNE 10 17 30 1016 10 16.09344 0 0
4:35 pm 16:35 Cloudy 50 10 46 8 88 88 NNE 14 22 30 1016 10 16.09344 0 0
4:55 pm 16:55 Cloudy 50 10 46 8 88 88 NNE 15 24 30 1016 10 16.09344 0 0
5:15 pm 17:15 Cloudy 48 9 46 8 94 94 NNE 12 19 30.06 1018 10 16.09344 0 0
5:35 pm 17:35 Cloudy 46 8 46 8 100 100 NNE 9 15 30.06 1018 7 11.265408 0 0
5:55 pm 17:55 Cloudy 46 8 46 8 100 100 NNE 12 19 30.06 1018 7 11.265408 0 0
6:15 pm 18:15 Cloudy 45 7 45 7 100 100 NNE 12 19 30.06 1018 7 11.265408 0 0
6:35 pm 18:35 Cloudy 45 7 45 7 100 100 NE 9 15 30.06 1018 10 16.09344 0 0
6:55 pm 18:55 Cloudy 45 7 45 7 100 100 NNE 9 15 30.09 1019 10 16.09344 0 0
7:15 pm 19:15 Cloudy 45 7 43 6 93 93 NNE 9 15 30.09 1019 10 16.09344 0 0
7:35 pm 19:35 Cloudy 45 7 43 6 93 93 NNE 13 20 30.09 1019 10 16.09344 0 0
7:55 pm 19:55 Cloudy 45 7 43 6 93 93 NE 12 19 30.09 1019 10 16.09344 0 0
8:15 pm 20:15 Cloudy 43 6 43 6 100 100 NNE 10 17 30.09 1019 10 16.09344 0 0
8:35 pm 20:35 Cloudy 43 6 43 6 100 100 NNE 7 11 30.09 1019 10 16.09344 0 0
8:55 pm 20:55 Cloudy 43 6 41 5 93 93 NNE 9 15 30.12 1020 10 16.09344 0 0
9:15 pm 21:15 Cloudy 43 6 41 5 93 93 NNE 10 17 30.12 1020 10 16.09344 0 0
9:35 pm 21:35 Cloudy 41 5 41 5 100 100 NNE 8 13 30.12 1020 10 16.09344 0 0
9:55 pm 21:55 Cloudy 41 5 41 5 100 100 NNE 8 13 30.12 1020 10 16.09344 0 0
10:15 pm 22:15 Cloudy 41 5 41 5 100 100 NNE 7 11 30.12 1020 10 16.09344 0 0
10:35 pm 22:35 Cloudy 41 5 41 5 100 100 NNE 7 11 30.12 1020 10 16.09344 0 0
10:55 pm 22:55 Cloudy 41 5 41 5 100 100 N 9 15 30.15 1021 10 16.09344 0 0
11:15 pm 23:15 Cloudy 41 5 41 5 100 100 NNE 8 13 30.15 1021 10 16.09344 0 0
11:35 pm 23:35 Cloudy 41 5 39 4 93 93 NNE 8 13 30.15 1021 10 16.09344 0 0
11:55 pm 23:55 Cloudy 41 5 39 4 93 93 NNE 7 11 30.15 1021 10 16.09344 0 0

Powered by AerisWeather